Regional Weather Roundup
Issued by NWS Green Bay, WI

Home | Current Version | Previous Version | Graphics & Text | Print | Product List | Glossary Off
Versions: 1 2 3 4 5 6 7 8 9 10 11 12 13 14 15 16 17 18 19 20 21 22 23 24 25 26 27 28 29 30 31 32 33 34 35 36 37 38 39 40 41 42 43 44 45 46 47 48 49 50

000
ASUS43 KGRB 211711
RWRGRB

NORTH-CENTRAL AND NORTHEAST WISCONSIN REGIONAL WEATHER ROUNDUP
NATIONAL WEATHER SERVICE GREEN BAY WI
1100 AM CST SAT JAN 21 2017

WIZ005-009-010>012-018-019-211800-
NORTH CENTRAL WISCONSIN

CITY           SKY/WX    TMP DP  RH WIND       PRES   REMARKS
IRONWOOD       LGT RAIN  36  34  92 SE5       29.50F
MANITOWISH WTR LGT RAIN  34  34 100 E5        29.48F
ARBOR VITAE    CLOUDY    37  36  96 SE6       29.48F
EAGLE RIVER    LGT RAIN  34  34 100 E7        29.49F
LAND O LAKES   MIX PCPN  34  34  99 SE6       29.52F
RHINELANDER    CLOUDY    35  35 100 E10       29.48F FOG
PHILLIPS       RAIN      34  34 100 E6        29.46F
ANTIGO         FOG       33  33 100 E10G17    29.48F VSB 1/4
TOMAHAWK       CLOUDY    35  34  96 E3        29.46F FOG
MERRILL        CLOUDY    35  35 100 E7          N/A  FOG
$$

WIZ013-073-211800-
NORTHEAST WISCONSIN

CITY           SKY/WX    TMP DP  RH WIND       PRES   REMARKS
IRON MOUNTAIN  CLOUDY    34  32  92 E3        29.54F FOG
MARINETTE      NOT AVBL
OCONTO         CLOUDY    35  35 100 E5        29.54F VSB 1/4
$$

WIZ017-030-035>037-045-211800-
CENTRAL WISCONSIN

CITY           SKY/WX    TMP DP  RH WIND       PRES   REMARKS
MEDFORD        FOG       34  34  99 E7        29.43F VSB 1/4
WAUSAU         FOG       35  35 100 E9        29.46F VSB 1/4
MOSINEE        FOG       36  36 100 E9        29.48R VSB 1/8
MARSHFIELD     LGT RAIN  34  34 100 E8        29.44S VSB 1/4
WISC RAPIDS    LGT RAIN  36  36 100 E8        29.46F VSB 1/4
STEVENS POINT  FOG       34  34 100 E8        29.48S VSB 1/4
WAUPACA        FOG       38  37  97 CALM      29.50R VSB 1/4
SHAWANO        FOG       36  35  96 E8        29.51F VSB 1/4
CLINTONVILLE   FOG       36  34  93 E10       29.49F VSB 1/4
WAUTOMA        FOG       36  36 100 NE6       29.48F VSB 1/4
$$

WIZ038-039-048-051-211800-
FOX VALLEY

CITY           SKY/WX    TMP DP  RH WIND       PRES   REMARKS
NWS GREEN BAY  FOG       37  37 100 NE8       29.52F VSB<1/4
APPLETON       FOG       36  36 100 NE8       29.48F VSB 1/8
OSHKOSH        FOG       37  36  96 NE5       29.48F VSB<1/4
FOND DU LAC    CLOUDY    41  38  89 SE7       29.48F
$$

WIZ022-050-052-211800-
EAST CENTRAL WISCONSIN

CITY           SKY/WX    TMP DP  RH WIND       PRES   REMARKS
EPHRAIM        FOG       36  36 100 E9        29.54F VSB<1/4
WASHINGTON ISL CLOUDY    36  36  99 E5        29.57F FOG
STURGEON BAY   LGT RAIN  38  38 100 E8        29.54F VSB 1/4
MANITOWOC      FOG       40  39  97 SE7       29.52F VSB<1/4
SHEBOYGAN      FOG       41  40  96 CALM      29.50F VSB<1/4
$$

LMZ563-521-522-541>543-211800-
LAKESHORE

STATION/POSITION TIME  TEMP    WIND        PRES    VSBY  WAVE
                       AIR SEA DIR/SP/G                  HT/PER
                 (UTC) (F)     (DEG/KT/KT) (MB)    (MI)  (FT/S)
SHEBOYGAN LKSHOR 1700   40     160/  6/  6  999.4F
KEWAUNEE LKSHORE 1648   37      40/  3/  5  999.9F
NORTHPORT PIER   1700   35      80/  3/  5 1001.4
SISTER BAY LKSHO 1650   38      90/  8/ 13   N/A
$$




USA.gov is the U.S. government's official web portal to all federal, state and local government web resources and services.